Shelton, WA

9:23 AM PDT on June 25, 2017 (GMT -0700)
Sanderson

Weather History for KSHN - November, 2013

Change the Weather History Date:

Monday, November 4, 2013

  Actual Average Record
Temperature  
Mean Temperature 36 °F -  
Max Temperature 45 °F 55 °F 69 °F (1970)
Min Temperature 28 °F 40 °F 21 °F (2002)
Degree Days  
Heating Degree Days 28    
Moisture  
Dew Point 35 °F    
Average Humidity 92    
Maximum Humidity 100    
Minimum Humidity 80    
Precipitation  
Precipitation 0.22 in - - ()
Sea Level Pressure  
Sea Level Pressure 30.13 in    
Wind  
Wind Speed 1 mph (NNE)    
Max Wind Speed 7 mph    
Max Gust Speed -    
Visibility 6 miles    
Events Fog , Rain    
Averages and records for this station are not official NWS values.
T = Trace of Precipitation, MM = Missing Value Source: NWS Daily Summary

Daily Weather History Graph

Daily Weather History Graph

Search for Another Location

Airport or City:

Trip Planner

Search our weather history database for the weather conditions in past years. The results will help you decide how hot, cold, wet, or windy it might be!

Date:

Astronomy

Nov. 04, 2013 Rise Set
Actual Time 7:00 AM PST 4:50 PM PST
Civil Twilight 6:28 AM PST 5:23 PM PST
Nautical Twilight 5:52 AM PST 5:59 PM PST
Astronomical Twilight 5:16 AM PST 6:35 PM PST
Moon 8:21 AM PST (11/4) 5:55 PM PST (11/4)
Length of Visible Light 10h 54m
Length of Day
9h 50m
New Moon, 2% of the Moon is Illuminated
Nov 4
New Moon
Nov 9
First Quarter
Nov 17
Full
Nov 25
Last Quarter
Dec 2
New

Hourly Weather History & Observations

Time (PST) Temp. Windchill Dew Point Humidity Pressure Visibility Wind Dir Wind Speed Gust Speed Precip Events Conditions
12:53 AM 30.9 °F - 28.9 °F 92% 30.12 in 10.0 mi Calm Calm - N/A   Mostly Cloudy
1:53 AM 28.9 °F - 27.0 °F 92% 30.12 in 10.0 mi Calm Calm - N/A   Partly Cloudy
2:53 AM 28.0 °F - 26.1 °F 92% 30.13 in 10.0 mi Calm Calm - N/A   Clear
3:53 AM 28.9 °F - 27.0 °F 92% 30.13 in 10.0 mi Calm Calm - N/A   Scattered Clouds
4:53 AM 30.0 °F - 28.0 °F 92% 30.15 in 10.0 mi Calm Calm - N/A   Overcast
5:53 AM 30.9 °F - 28.0 °F 89% 30.16 in 10.0 mi Calm Calm - N/A   Scattered Clouds
6:53 AM 28.9 °F - 27.0 °F 92% 30.16 in 10.0 mi Calm Calm - N/A   Clear
7:10 AM 28.4 °F - 26.6 °F 93% 30.15 in 10.0 mi Calm Calm - N/A   Scattered Clouds
7:18 AM 28.4 °F - 26.6 °F 93% 30.14 in 10.0 mi Calm Calm - N/A   Mostly Cloudy
7:28 AM 28.4 °F - 26.6 °F 93% 30.15 in 1.0 mi Calm Calm - N/A   Overcast
7:35 AM 28.4 °F - 26.6 °F 93% 30.15 in 0.2 mi Calm Calm - N/A Fog Light Freezing Fog
7:53 AM 30.0 °F - 28.9 °F 96% 30.17 in 0.2 mi Calm Calm - N/A Fog Light Freezing Fog
8:13 AM 32.0 °F - 30.2 °F 93% 30.15 in 0.2 mi Calm Calm - N/A Fog Fog
8:30 AM 32.0 °F - 32.0 °F 100% 30.16 in 0.2 mi Calm Calm - N/A Fog Fog
8:39 AM 33.8 °F - 33.8 °F 100% 30.16 in 1.8 mi Calm Calm - N/A   Overcast
8:46 AM 33.8 °F - 33.8 °F 100% 30.16 in 10.0 mi Calm Calm - N/A   Overcast
8:53 AM 35.1 °F 32.2 °F 33.1 °F 92% 30.18 in 10.0 mi NNW 3.5 mph - N/A   Overcast
9:04 AM 35.6 °F 32.8 °F 35.6 °F 100% 30.16 in 1.8 mi North 3.5 mph - N/A   Overcast
9:15 AM 35.6 °F 32.8 °F 35.6 °F 100% 30.17 in 0.8 mi NNW 3.5 mph - N/A   Overcast
9:53 AM 37.9 °F 34.4 °F 37.0 °F 97% 30.19 in 0.2 mi NE 4.6 mph - N/A Fog Fog
10:35 AM 39.2 °F 37.0 °F 39.2 °F 100% 30.18 in 2.0 mi ENE 3.5 mph - N/A   Overcast
10:51 AM 39.2 °F 37.0 °F 39.2 °F 100% 30.18 in 4.0 mi NNE 3.5 mph - N/A   Overcast
10:53 AM 39.9 °F 37.8 °F 39.0 °F 97% 30.20 in 4.0 mi NE 3.5 mph - N/A   Overcast
11:53 AM 41.0 °F - 39.0 °F 93% 30.19 in 10.0 mi Calm Calm - N/A   Overcast
12:01 PM 41.0 °F - 39.2 °F 93% 30.16 in 5.0 mi Calm Calm - N/A   Overcast
12:53 PM 44.1 °F - 39.0 °F 82% 30.17 in 6.0 mi Calm Calm - N/A   Haze
1:14 PM 44.6 °F - 39.2 °F 81% 30.14 in 10.0 mi Calm Calm - N/A   Overcast
1:53 PM 44.1 °F - 39.0 °F 82% 30.15 in 10.0 mi Calm Calm - N/A   Overcast
2:53 PM 45.0 °F 43.5 °F 39.0 °F 80% 30.14 in 10.0 mi North 3.5 mph - N/A   Overcast
3:53 PM 45.0 °F - 39.0 °F 80% 30.14 in 10.0 mi Calm Calm - N/A   Overcast
4:53 PM 44.1 °F - 39.9 °F 85% 30.14 in 10.0 mi Calm Calm - 0.00 in Rain Light Rain
5:53 PM 43.0 °F 41.3 °F 41.0 °F 93% 30.13 in 8.0 mi NE 3.5 mph - 0.02 in Rain Light Rain
6:53 PM 43.0 °F - 39.9 °F 89% 30.11 in 8.0 mi Calm Calm - 0.01 in Rain Light Rain
7:53 PM 42.1 °F 39.2 °F 39.0 °F 89% 30.10 in 10.0 mi North 4.6 mph - 0.02 in Rain Light Rain
8:44 PM 42.8 °F 39.3 °F 39.2 °F 87% 30.08 in 10.0 mi North 5.8 mph - 0.01 in Rain Light Rain
8:53 PM 42.1 °F 39.2 °F 39.0 °F 89% 30.10 in 8.0 mi North 4.6 mph - 0.02 in Rain Light Rain
9:53 PM 41.0 °F 39.0 °F 39.0 °F 93% 30.08 in 5.0 mi NNE 3.5 mph - 0.04 in Rain Light Rain
10:27 PM 41.0 °F 37.1 °F 39.2 °F 93% 30.05 in 4.0 mi North 5.8 mph - 0.03 in Rain Light Rain
10:53 PM 42.1 °F 37.7 °F 39.9 °F 92% 30.06 in 2.5 mi NNE 6.9 mph - 0.06 in Rain Light Rain
11:20 PM 42.8 °F - 41.0 °F 93% 30.04 in 2.5 mi Calm Calm - 0.02 in Rain Light Rain
11:30 PM 42.8 °F - 41.0 °F 93% 30.03 in 2.0 mi Calm Calm - 0.03 in Rain Light Rain
11:41 PM 42.8 °F 41.1 °F 39.2 °F 87% 30.03 in 2.5 mi Variable 3.5 mph - 0.03 in Rain Light Rain
11:53 PM 42.1 °F 39.2 °F 41.0 °F 96% 30.04 in 2.5 mi North 4.6 mph - 0.05 in Rain Light Rain